Location: Stokes Fall Starparty
(41.2298°N, 74.7506°W)
Time: 10:53:27
(UTC-04:00)

Daily predictions for brighter satellites

Satellite Brightness Start Highest point End
(mag) Time Altitude Azimuth Time Altitude Azimuth Time Altitude Azimuth
SL-16 R/B 2.3 20:44:15 10° S 20:49:45 57° ESE 20:55:18 10° NNE
CZ-4 DEB 3.3 20:48:27 10° S 20:51:38 61° W 20:54:51 10° NNW
SPOT 5 3.9 20:48:37 10° ESE 20:52:16 26° ENE 20:55:51 10° NNE
Cosmos 1666 3.7 20:52:24 10° NNE 20:55:54 30° ENE 20:59:22 10° SE
Cosmos 1500 4.0 20:53:24 10° NNW 20:57:12 54° W 21:00:59 10° S
Lacrosse 5 rocket 1.5 20:55:09 10° SW 20:58:58 71° NW 21:03:00 10° NE
Cosmos 1331 Rocket 4.0 20:55:51 10° NNW 21:01:04 74° ENE 21:06:14 10° SSE
Lacrosse 5 4.0 20:58:51 10° W 21:03:18 30° NNW 21:07:45 10° NNE
Meteor 1-23 Rocket 4.3 20:58:53 10° S 21:04:26 65° E 21:10:06 10° NNE
CZ-4 SHROUD 4.4 21:01:47 10° SE 21:04:31 28° ENE 21:07:16 10° N
Cosmos 2285 Rocket 4.1 21:00:01 10° NNW 21:06:21 71° ENE 21:12:40 10° SSE
Cosmos 1743 2.9 21:03:33 10° NNW 21:07:24 73° W 21:11:13 10° S
Cosmos 1302 Rocket 4.3 21:05:11 10° N 21:10:18 52° ENE 21:15:14 11° SE
Cosmos 1726 Rocket 3.7 21:06:22 10° N 21:10:51 78° W 21:15:15 10° S
ALOS 3.5 21:10:09 10° S 21:14:33 41° W 21:19:00 10° NNW
SeaSat 1 2.8 21:10:21 11° SE 21:15:04 55° ENE 21:19:54 10° NNW
Okean 2 3.4 21:11:34 10° S 21:15:44 78° E 21:19:56 10° N
Cosmos 1603 4.2 21:13:32 10° S 21:18:39 37° ESE 21:23:46 10° NE
CZ-4B R/B 4.3 21:14:34 10° NE 21:19:03 31° E 21:23:35 10° SSE
Cosmos 1464 Rocket 4.0 21:13:17 10° N 21:19:26 80° E 21:25:36 10° S
Cosmos 2058 Rocket 3.2 21:17:28 10° N 21:21:52 77° W 21:26:12 10° S
APEX 3.7 21:18:35 10° NNW 21:22:31 66° ENE 21:26:55 14° SE
Meteor 2-9 Rocket 4.3 21:17:59 10° N 21:23:40 80° E 21:29:28 10° SSE
Meteor 2-4 Rocket 4.0 21:20:59 10° SSW 21:26:50 81° W 21:32:48 10° N
Cosmos 1602 Rocket 3.7 21:25:03 10° S 21:29:25 55° E 21:33:49 10° NNE
Cosmos 2333 Rocket 4.4 21:25:42 10° WSW 21:30:34 29° NW 21:35:29 10° N
Cosmos 1461 3.3 21:27:32 10° NNW 21:31:48 53° NE 21:34:38 18° SE
deb Chang Zheng 4 4.2 21:27:35 10° N 21:31:57 61° WNW 21:36:15 10° SSW
Cosmos 2297 4.3 21:27:32 10° NNW 21:33:06 55° WSW 21:38:39 10° S
ATLAS 3B R/B 4.0 21:29:52 11° SSE 21:35:04 23° ESE 21:40:41 10° ENE
Milstar 3 Cent rocket 4.0 21:31:58 10° WSW 21:36:23 17° SSW 21:39:27 11° S
Cosmos 2034 Rocket 4.0 21:30:55 10° N 21:37:20 82° E 21:43:36 10° S
PSLV R/B 3.1 21:37:02 18° SSE 21:39:11 86° ENE 21:42:18 10° N
CZ-2C R/B 3.4 21:38:01 10° SW 21:39:25 14° W 21:40:50 10° WNW
Cosmos 1812 Rocket 3.9 21:35:40 10° N 21:39:55 48° E 21:42:44 20° SSE
ERS-1 Rocket 4.1 21:38:42 10° S 21:43:25 41° W 21:48:11 10° NNW
Cosmos 1943 4.2 21:41:51 18° SE 21:44:27 25° ESE 21:49:01 10° NE
Envisat 3.1 21:39:39 11° S 21:44:27 80° WSW 21:49:34 10° NNW
BREEZE-M DEB (TANK) 2.1 21:41:18 10° SW 21:45:51 71° SSE 21:48:01 10° ENE
USA 234 3.3 21:43:14 17° SE 21:48:30 80° NE 21:55:06 10° NW
YAOGAN 6 2.8 21:50:25 26° SE 21:52:18 55° ENE 21:55:59 10° N
H-2A R/B 3.6 21:49:24 10° SSW 21:53:13 33° W 21:57:07 10° NNW
Cosmos 1943 Rocket 4.3 21:54:00 10° NNE 21:57:02 15° NE 22:00:04 10° E
MetOp-A 4.1 21:56:20 18° SSE 22:00:26 85° WSW 22:05:50 10° NNW
Abrixas rocket 2.7 21:59:19 10° WNW 22:02:39 48° SW 22:03:38 35° SSE
Cosmos 1626 Rocket 4.0 21:58:34 10° SSW 22:02:58 63° W 22:07:23 10° N
Meteor 2-12 Rocket 4.4 22:05:29 10° N 22:11:37 84° E 22:15:35 23° S
Atlas Centaur 2 3.6 22:07:17 10° SW 22:14:18 34° SSE 22:18:15 24° SE
CZ-4C R/B 3.7 22:15:26 35° SE 22:16:57 55° ENE 22:21:01 10° N
Cosmos 1953 Rocket 4.0 22:18:27 36° SE 22:19:34 44° E 22:23:47 10° NNE
Cosmos 2346 Rocket 4.4 22:17:08 23° S 22:21:09 68° E 22:27:15 10° NNE
H-2A R/B 2.6 22:19:20 29° ESE 22:21:11 40° ENE 22:25:52 10° N
SAR-Lupe-2 4.4 22:21:49 34° E 22:22:16 35° ENE 22:25:34 10° N
PSLV R/B 3.4 22:18:56 10° WSW 22:22:25 56° SSE 22:22:27 56° SSE
Cosmos 1992 Rocket 4.0 22:18:18 10° NNW 22:23:33 72° ENE 22:25:45 35° SE
COSMOS 2455 2.8 22:17:33 10° SSW 22:23:33 84° ESE 22:29:36 10° NNE
CZ-4 R/B 3.9 22:18:56 10° NNE 22:23:57 87° ESE 22:27:22 21° SSW
Cosmos 2369 Rocket 2.4 22:23:23 10° NNW 22:28:59 58° ENE 22:31:20 34° SE
SPOT 1/Viking Rocket 3.8 22:26:44 26° S 22:29:40 64° WSW 22:34:48 10° NNW
SPOT 5 4.3 22:26:56 13° SSW 22:30:15 28° W 22:34:02 10° NW
DELTA 2 DEB (DPAF) 4.1 22:29:30 41° SSE 22:31:03 80° ENE 22:35:33 10° N
ARGOS 3.2 22:29:23 29° S 22:32:13 78° WSW 22:37:40 10° NNW
Spot 4 4.5 22:35:17 34° ESE 22:36:33 42° ENE 22:41:03 10° N
IGS 5A 3.9 22:36:44 40° E 22:37:23 44° ENE 22:41:22 10° N
Cosmos 1953 3.9 22:34:40 10° NNE 22:37:46 21° ENE 22:37:47 21° ENE
Geosat 3.9 22:33:18 10° NNE 22:38:23 88° ESE 22:42:04 19° SSW
DMSP B5D2-2 4.4 22:33:28 10° NNE 22:38:35 47° E 22:39:47 40° SE
Lacrosse 5 rocket 4.5 22:36:26 10° WNW 22:38:56 16° NNW 22:41:32 10° NNE
Cosmos 1190 Rocket 4.0 22:37:27 34° S 22:39:43 68° ESE 22:45:00 10° NNE
NOAA 11 4.3 22:37:27 32° S 22:40:03 73° WSW 22:45:29 10° NNW
Landsat 7 3.7 22:40:04 44° SSE 22:41:35 84° ENE 22:46:22 10° NNW
Cosmos-2242 3.9 22:40:41 10° N 22:44:43 34° ENE 22:45:05 33° E
Meteor 1-22 Rocket 4.1 22:39:56 10° N 22:45:30 82° E 22:47:39 40° SSE
Spot 2 4.4 22:45:17 10° NNE 22:50:00 63° ESE 22:51:03 50° SSE
Cosmos 2263 4.3 22:44:45 10° NNW 22:50:20 62° ENE 22:52:07 41° SE
SL-24 R/B 4.4 22:46:38 10° N 22:51:31 70° E 22:52:51 48° SSE
SeaSat 1 4.4 22:50:09 13° SW 22:52:51 20° WSW 22:56:24 10° WNW
Cosmos 1758 Rocket 3.4 22:53:08 57° S 22:54:01 87° E 22:58:24 10° N
Lacrosse 4 Rocket 1.6 22:55:02 52° E 22:55:02 52° E 22:58:30 10° NE
Cosmos 676 Rocket 4.1 22:54:56 49° SE 22:55:53 56° ESE 23:01:07 10° NNE
SL-08 RB Rocket 4.4 22:55:15 34° SSW 22:56:45 48° W 23:01:10 10° NNW
Terra 1.7 22:56:20 55° SSE 22:57:22 84° ENE 23:02:10 10° NNW
CARTOSAT-1 3.4 22:57:34 64° S 22:58:13 88° WSW 23:02:34 10° NNW
Cosmos 1346 Rocket 3.2 23:03:05 49° WSW 23:03:44 57° WNW 23:07:37 10° N
Cosmos 1140 Rocket 4.3 23:09:35 35° E 23:09:35 35° E 23:13:58 10° NE
Cosmos 1900 4.3 23:17:42 59° SSW 23:18:40 83° ESE 23:23:50 10° NNE
Meteor 1-21 4.4 23:19:02 38° SSW 23:21:15 70° W 23:27:04 10° N
Cosmos 1758 3.6 23:18:00 10° N 23:21:45 64° NE 23:21:45 64° NE
Cosmos 1842 3.4 23:23:02 70° NW 23:23:02 70° NW 23:26:42 10° N
Nadezhda 4 Rocket 4.1 23:21:21 50° SE 23:22:47 63° E 23:29:01 10° NNE
Cosmos 1842 Rocket 4.1 23:19:54 10° N 23:23:51 45° ENE 23:23:51 45° ENE
ATLAS 3B R/B 3.0 23:17:23 10° SW 23:25:07 79° NW 23:32:42 10° NNE
SL-27 R/B 4.3 23:29:34 25° NNE 23:29:34 25° NNE 23:31:07 10° NNE
Cosmos 1943 4.1 23:23:34 14° SW 23:28:11 46° WNW 23:33:40 10° NNE
Cosmos 407 Rocket 4.0 23:27:24 31° SW 23:29:41 55° WNW 23:34:50 10° N
USA 234 4.3 23:30:35 26° SW 23:31:53 28° SW 23:37:24 10° WNW
Meteor 2-5 Rocket 4.5 23:34:17 37° E 23:34:32 38° E 23:39:51 10° NNE
Cosmos 2208 Rocket 4.2 23:32:45 10° N 23:37:50 54° ENE 23:38:18 52° E
Cosmos 1544 4.4 23:36:55 10° N 23:39:32 36° NE 23:39:32 36° NE
Cosmos 1943 Rocket 2.0 23:36:01 10° NNW 23:41:36 87° ENE 23:42:15 71° SSE
Cosmos 1954 Rocket 4.2 23:47:02 52° SW 23:48:10 66° WNW 23:53:28 10° NNE
CZ-4B R/B 3.6 23:50:30 22° NE 23:50:30 22° NE 23:52:38 10° NNE
